Regional Weather Roundup
Issued by NWS Upton, NY

Current Version | Previous Version | Text Only | Print | Product List | Glossary Off
Versions: 1 2 3 4 5 6 7 8 9 10 11 12 13 14 15 16 17 18 19 20 21 22 23 24 25 26 27 28 29 30 31 32 33 34 35 36 37 38 39 40 41 42 43 44 45 46 47 48 49 50

000
ASUS41 KOKX 300605
RWROKX

REGIONAL WEATHER ROUNDUP
NATIONAL WEATHER SERVICE NEW YORK NY
200 AM EDT WED JUL 30 2014

NOTE: "FAIR" INDICATES FEW OR NO CLOUDS BELOW 12,000 FEET WITH NO
SIGNIFICANT WEATHER AND/OR OBSTRUCTIONS TO VISIBILITY.

NYZ071-072-176-178-NJZ106-104-300700-
NEW YORK CITY METRO AREA


CITY           SKY/WX    TMP DP  RH WIND       PRES   REMARKS
CENTRAL PARK   MOCLDY    66  51  58 CALM      30.01S
LAGUARDIA APRT CLOUDY    69  53  56 W7        29.97F
KENNEDY INTL   CLOUDY    68  53  58 CALM      29.98F
NEWARK/LIBERTY MOCLDY    65  53  65 CALM      29.98S
BRNX BOT. GARD   N/A     64  54  68 SW3       29.98S
TETERBORO      PTCLDY    65  52  62 CALM      29.97F
$$

NYZ177-179-078>081-300700-
LONG ISLAND NEW YORK

CITY           SKY/WX    TMP DP  RH WIND       PRES   REMARKS
FARMINGDALE    CLOUDY    65  53  65 CALM      29.97F
ISLIP          MOCLDY    65  53  65 CALM      29.96F
SHIRLEY        PTCLDY    59  54  83 CALM      29.97F
WESTHAMPTON    CLEAR     53  50  89 CALM      29.98F
MONTAUK POINT    N/A     67  60  78 CALM      29.97F
$$

NYZ052-065-067-300700-
HUDSON VALLEY

CITY           SKY/WX    TMP DP  RH WIND       PRES   REMARKS
WHITE PLAINS   CLEAR     59  54  83 NW3       29.97S
NEWBURGH       NOT AVBL
MONTGOMERY     CLOUDY    61  56  83 CALM      29.98S
POUGHKEEPSIE   CLOUDY    62  59  90 CALM      29.97S
ALBANY         MOCLDY    62  52  69 W5        29.98R
$$

NJZ001-105-106-008-010-013-015-019>022-104-300700-
NEW JERSEY

CITY           SKY/WX    TMP DP  RH WIND       PRES   REMARKS
NEWARK/LIBERTY MOCLDY    65  53  65 CALM      29.98S
TETERBORO      PTCLDY    65  52  62 CALM      29.97F
CALDWELL       MOCLDY    59  53  80 CALM      29.99S
MORRISTOWN     CLOUDY    55  54  94 CALM      29.99F
SOMERVILLE     CLOUDY    57  54  89 CALM      29.98S
LINDEN         CLOUDY    66  55  67 CALM      30.00S
SUSSEX         MOCLDY    59  56  89 CALM      30.00R
ANDOVER          N/A     53  52  96 CALM      30.01S
TRENTON        CLOUDY    63  56  78 NW3       29.98F
MILLVILLE      CLEAR     58  57  97 CALM      29.99S
ATLANTIC CITY  MOCLDY    65  60  84 N5        29.97F
WRIGHTSTOWN    CLOUDY    62  58  87 N3        29.97S
TOMS RIVER     CLOUDY    61  57  88 CALM      29.99S
BELMAR         CLOUDY    64  54  68 NW3       29.98S
$$

PAZ047>061-062-071-300700-
EASTERN PENNSYLVANIA

CITY           SKY/WX    TMP DP  RH WIND       PRES   REMARKS
PHILADELPHIA   PTCLDY    66  53  63 N5        29.99F
ALLENTOWN      CLEAR     57  53  86 CALM      30.00F
SCRANTON       CLEAR     54  50  86 SE5       30.01S
$$

CTZ002-004>006-009-010-012-RIZ004-006-007-MAZ004-011-015-300700-
SOUTHERN NEW ENGLAND
 IN CT

CITY           SKY/WX    TMP DP  RH WIND       PRES   REMARKS
BRADLEY INTL   MOCLDY    61  56  83 W3        29.97S
HARTFORD       CLOUDY    63  57  81 CALM      29.97S
DANBURY        CLOUDY    60  56  86 CALM      30.00R
WTRBRY/OXFORD  CLOUDY    61  54  77 CALM      30.00S
BRIDGEPORT     CLEAR     64  57  78 N3        29.97S
MERIDEN        CLOUDY    62  58  86 CALM      29.97F
NEW HAVEN      CLEAR     61  55  81 CALM      29.97S
CHESTER        FAIR      61  55  82 CALM      29.98F
GROTON         CLOUDY    62  60  93 CALM      29.96F
WILLIMANTIC    CLOUDY    59  56  89 CALM      29.98S

 IN RI

CITY           SKY/WX    TMP DP  RH WIND       PRES   REMARKS
PROVIDENCE     CLOUDY    63  55  75 W5        29.97S
BLOCK ISLAND   CLEAR     64  57  77 W5        29.96F
WESTERLY       PTCLDY    61  58  90 CALM      29.97F

 IN MA

CITY           SKY/WX    TMP DP  RH WIND       PRES   REMARKS
BOSTON         MOCLDY    67  55  65 SW5       29.95S
WORCESTER      PTCLDY    58  52  80 W7        29.99R
WESTFIELD      MOCLDY    55  53  93 CALM      29.98R
PROVINCETOWN   CLEAR     63  61  94 W7        29.95F
NANTUCKET      PTCLDY    63  61  93 SW3       29.97S
$$

ANZ330-335-338-340-345-350-353-355-300700-
COASTAL MARINE OBSERVATIONS


STATION/POSITION TIME  SKY/WX   TEMP    WIND        PRES    VSBY  WAVE
                                AIR SEA DIR/SP/G                  HT/PER
                 (UTC)          (F)     (DEG/KT/KT) (MB)    (MI)  (FT/S)
NY HARB ENTRANCE NOT AVBL
4S FIRE IS       NOT AVBL
23SW MTP         0600            68 68              1014.2          3/ 8
HUDSON CANYON    0600            71 74  250/  8/ 10 1014.7          4/ 8
EXECUTION ROCKS  0600            68 70  290/  2/  4   N/A
WESTERN LI SOUND 0600            68     250/  4/  6   N/A           0
CENTRAL LI SOUND 0500            69 71   CALM  /  2   N/A           0
EASTERN LI SOUND 0500            66 67  340/  2/  4   N/A
ROBBINS REEF     0600            68     310/  3/  4   N/A
$$


>>>>>>>>>>>>>>>>>>>>>>>>>>>> KEY <<<<<<<<<<<<<<<<<<<<<<<<<<<
>                                                          <
>     SKY/WX - SKY CONDITION/PRESENT WEATHER               <
>     TMP    - TEMPERATURE IN FAHRENHEIT                   <
>     DP     - DEWPOINT IN FAHRENHEIT                      <
>     RH     - RELATIVE HUMIDITY IN PERCENT                <
>     WIND   - DIRECTION AND SPEED IN MPH                  <
>     PRES   - MEAN SEA LEVEL PRESSURE IN INCHES OF HG     <
>     WCI    - WIND CHILL INDEX                            <
>     VSB    - VISIBILITY IN MILES                         <
>     HX     - HEAT INDEX                                  <
>     TC     - TEMPERATURE IN CELSIUS                      <
>     VRB    - VARIABLE WIND DIRECTION                     <
>                                                          <
>>>>>>>>>>>>>>>>>>>>>>>>>>>> KEY <<<<<<<<<<<<<<<<<<<<<<<<<<<




USA.gov is the U.S. government's official web portal to all federal, state and local government web resources and services.